Time,TemperatureF,DewpointF,PressureIn,WindDirection,WindDirectionDegrees,WindSpeedMPH,WindSpeedGustMPH,Humidity,HourlyPrecipIn,Conditions,Clouds,dailyrainin,SoftwareType,DateUTC
2013-02-11 00:02:00,40.0,33.0,29.52,ESE,107,6.0,16.0,77,0.00,,,0.30,,2013-02-11 06:02:00,
2013-02-11 00:11:00,40.0,33.0,29.52,ESE,107,6.0,16.0,77,0.00,,,0.30,,2013-02-11 06:11:00,
2013-02-11 00:21:00,39.0,33.0,29.53,SE,137,5.0,14.0,78,0.00,,,0.30,,2013-02-11 06:21:00,
2013-02-11 00:32:00,38.0,32.0,29.54,WSW,241,9.0,28.0,78,0.00,,,0.30,,2013-02-11 06:32:00,
2013-02-11 00:42:00,38.0,31.0,29.54,WSW,254,10.0,25.0,77,0.00,,,0.30,,2013-02-11 06:42:00,
2013-02-11 00:52:00,38.0,31.0,29.54,WSW,254,10.0,25.0,77,0.00,,,0.30,,2013-02-11 06:52:00,
2013-02-11 01:01:00,37.0,31.0,29.54,West,277,7.0,20.0,78,0.00,,,0.30,,2013-02-11 07:01:00,
2013-02-11 01:11:00,37.0,31.0,29.54,West,262,11.0,21.0,78,0.00,,,0.30,,2013-02-11 07:11:00,
2013-02-11 01:21:00,37.0,31.0,29.54,West,262,11.0,21.0,78,0.00,,,0.30,,2013-02-11 07:21:00,
2013-02-11 01:32:00,36.0,30.0,29.55,West,261,9.0,19.0,79,0.00,,,0.30,,2013-02-11 07:32:00,
2013-02-11 01:41:00,36.0,30.0,29.56,West,271,5.0,22.0,80,0.00,,,0.30,,2013-02-11 07:41:00,
2013-02-11 01:52:00,36.0,30.0,29.56,West,271,5.0,22.0,80,0.00,,,0.30,,2013-02-11 07:52:00,
2013-02-11 02:01:00,36.0,30.0,29.56,NW,320,7.0,19.0,78,0.00,,,0.30,,2013-02-11 08:01:00,
2013-02-11 02:11:00,36.0,30.0,29.56,NW,320,7.0,19.0,78,0.00,,,0.30,,2013-02-11 08:11:00,
2013-02-11 02:21:00,35.0,29.0,29.57,WSW,242,9.0,25.0,77,0.00,,,0.30,,2013-02-11 08:21:00,
2013-02-11 02:31:00,35.0,28.0,29.58,West,260,8.0,22.0,76,0.00,,,0.30,,2013-02-11 08:31:00,
2013-02-11 02:42:00,35.0,28.0,29.57,WSW,247,7.0,22.0,76,0.00,,,0.30,,2013-02-11 08:42:00,
2013-02-11 02:52:00,35.0,28.0,29.57,WSW,247,7.0,22.0,76,0.00,,,0.30,,2013-02-11 08:52:00,
2013-02-11 03:01:00,35.0,28.0,29.58,SW,226,11.0,29.0,75,0.00,,,0.30,,2013-02-11 09:01:00,
2013-02-11 03:12:00,35.0,28.0,29.58,SW,226,11.0,29.0,75,0.00,,,0.30,,2013-02-11 09:12:00,
2013-02-11 03:21:00,34.0,26.0,29.59,WNW,294,9.0,22.0,73,0.00,,,0.30,,2013-02-11 09:21:00,
2013-02-11 03:31:00,34.0,26.0,29.59,WSW,240,10.0,34.0,73,0.00,,,0.30,,2013-02-11 09:31:00,
2013-02-11 03:41:00,34.0,26.0,29.59,WSW,240,10.0,34.0,73,0.00,,,0.30,,2013-02-11 09:41:00,
2013-02-11 03:52:00,34.0,26.0,29.60,SW,215,9.0,29.0,72,0.00,,,0.30,,2013-02-11 09:52:00,
2013-02-11 04:01:00,34.0,26.0,29.60,SW,234,10.0,26.0,73,0.00,,,0.30,,2013-02-11 10:01:00,
2013-02-11 04:11:00,34.0,26.0,29.60,SW,234,10.0,26.0,73,0.00,,,0.30,,2013-02-11 10:11:00,
2013-02-11 04:21:00,33.0,26.0,29.60,West,269,10.0,28.0,74,0.00,,,0.30,,2013-02-11 10:21:00,
2013-02-11 04:31:00,33.0,25.0,29.61,WSW,243,10.0,24.0,73,0.00,,,0.30,,2013-02-11 10:31:00,
2013-02-11 04:42:00,33.0,25.0,29.61,WSW,243,10.0,24.0,73,0.00,,,0.30,,2013-02-11 10:42:00,
2013-02-11 04:52:00,33.0,25.0,29.61,West,274,10.0,21.0,73,0.00,,,0.30,,2013-02-11 10:52:00,
2013-02-11 05:01:00,33.0,25.0,29.62,WSW,241,7.0,22.0,73,0.00,,,0.30,,2013-02-11 11:01:00,
2013-02-11 05:11:00,33.0,25.0,29.62,WSW,241,7.0,22.0,73,0.00,,,0.30,,2013-02-11 11:11:00,
2013-02-11 05:22:00,33.0,26.0,29.62,WSW,258,8.0,28.0,74,0.00,,,0.30,,2013-02-11 11:22:00,
2013-02-11 05:32:00,33.0,26.0,29.63,West,263,10.0,27.0,74,0.00,,,0.30,,2013-02-11 11:32:00,
2013-02-11 05:42:00,33.0,26.0,29.63,West,263,10.0,27.0,74,0.00,,,0.30,,2013-02-11 11:42:00,
2013-02-11 05:52:00,33.0,26.0,29.64,West,262,7.0,20.0,74,0.00,,,0.30,,2013-02-11 11:52:00,
2013-02-11 06:03:00,33.0,26.0,29.64,WSW,256,8.0,18.0,74,0.00,,,0.30,,2013-02-11 12:03:00,
2013-02-11 06:12:00,33.0,26.0,29.64,WSW,256,8.0,18.0,74,0.00,,,0.30,,2013-02-11 12:12:00,
2013-02-11 06:22:00,33.0,26.0,29.65,WNW,284,9.0,27.0,74,0.00,,,0.28,,2013-02-11 12:22:00,
2013-02-11 06:32:00,33.0,26.0,29.65,West,280,10.0,21.0,75,0.00,,,0.28,,2013-02-11 12:32:00,
2013-02-11 06:42:00,33.0,26.0,29.65,West,280,10.0,21.0,75,0.00,,,0.28,,2013-02-11 12:42:00,
2013-02-11 06:52:00,33.0,26.0,29.65,West,280,10.0,21.0,75,0.00,,,0.28,,2013-02-11 12:52:00,
2013-02-11 07:02:00,33.0,26.0,29.68,SSW,207,11.0,21.0,74,0.00,,,0.28,,2013-02-11 13:02:00,
2013-02-11 07:11:00,33.0,26.0,29.68,WSW,247,9.0,24.0,74,0.00,,,0.28,,2013-02-11 13:11:00,
2013-02-11 07:22:00,33.0,26.0,29.68,WSW,247,9.0,24.0,74,0.00,,,0.28,,2013-02-11 13:22:00,
2013-02-11 07:32:00,33.0,26.0,29.70,West,259,11.0,21.0,74,0.00,,,0.28,,2013-02-11 13:32:00,
2013-02-11 07:42:00,33.0,26.0,29.70,West,259,11.0,21.0,74,0.00,,,0.28,,2013-02-11 13:42:00,
2013-02-11 07:52:00,33.0,26.0,29.70,West,259,11.0,21.0,74,0.00,,,0.28,,2013-02-11 13:52:00,
2013-02-11 08:01:00,33.0,26.0,29.71,WNW,288,7.0,22.0,74,0.00,,,0.28,,2013-02-11 14:01:00,
2013-02-11 08:11:00,33.0,26.0,29.71,WNW,288,7.0,22.0,74,0.00,,,0.28,,2013-02-11 14:11:00,
2013-02-11 08:22:00,33.0,25.0,29.72,NNE,17,11.0,24.0,73,0.00,,,0.28,,2013-02-11 14:22:00,
2013-02-11 08:33:00,33.0,26.0,29.72,WNW,298,12.0,26.0,74,0.00,,,0.28,,2013-02-11 14:33:00,
2013-02-11 08:42:00,33.0,26.0,29.72,WNW,298,12.0,26.0,74,0.00,,,0.28,,2013-02-11 14:42:00,
2013-02-11 08:52:00,33.0,26.0,29.72,WNW,298,12.0,26.0,74,0.00,,,0.28,,2013-02-11 14:52:00,
2013-02-11 09:02:00,33.0,25.0,29.74,West,259,10.0,29.0,73,0.00,,,0.28,,2013-02-11 15:02:00,
2013-02-11 09:11:00,33.0,25.0,29.74,West,259,10.0,29.0,73,0.00,,,0.28,,2013-02-11 15:11:00,
2013-02-11 09:22:00,33.0,25.0,29.75,WSW,256,11.0,26.0,73,0.00,,,0.28,,2013-02-11 15:22:00,
2013-02-11 09:32:00,33.0,25.0,29.75,WSW,256,11.0,26.0,73,0.00,,,0.28,,2013-02-11 15:32:00,
2013-02-11 09:42:00,32.0,25.0,29.76,West,272,9.0,25.0,74,0.00,,,0.28,,2013-02-11 15:42:00,
2013-02-11 09:52:00,32.0,25.0,29.76,West,272,9.0,25.0,74,0.00,,,0.28,,2013-02-11 15:52:00,
2013-02-11 10:02:00,32.0,25.0,29.77,West,267,9.0,21.0,74,0.00,,,0.28,,2013-02-11 16:02:00,
2013-02-11 10:12:00,32.0,25.0,29.77,West,267,9.0,21.0,74,0.00,,,0.28,,2013-02-11 16:12:00,
2013-02-11 10:22:00,32.0,25.0,29.78,WSW,239,9.0,22.0,74,0.00,,,0.28,,2013-02-11 16:22:00,
2013-02-11 10:32:00,32.0,24.0,29.79,WSW,254,11.0,24.0,73,0.00,,,0.16,,2013-02-11 16:32:00,
2013-02-11 10:42:00,32.0,24.0,29.80,North,350,10.0,26.0,73,0.00,,,0.16,,2013-02-11 16:42:00,
2013-02-11 10:52:00,32.0,24.0,29.80,North,350,10.0,26.0,73,0.00,,,0.16,,2013-02-11 16:52:00,
2013-02-11 11:02:00,32.0,24.0,29.81,SSW,212,11.0,27.0,73,0.00,,,0.16,,2013-02-11 17:02:00,
2013-02-11 11:11:00,32.0,24.0,29.81,SSW,212,11.0,27.0,73,0.00,,,0.16,,2013-02-11 17:11:00,
2013-02-11 11:22:00,32.0,25.0,29.82,WSW,254,12.0,23.0,74,0.00,,,0.16,,2013-02-11 17:22:00,
2013-02-11 11:32:00,32.0,24.0,29.83,NW,312,9.0,28.0,73,0.00,,,0.13,,2013-02-11 17:32:00,
2013-02-11 11:42:00,32.0,24.0,29.83,NW,312,9.0,28.0,73,0.00,,,0.13,,2013-02-11 17:42:00,
2013-02-11 11:52:00,32.0,24.0,29.83,West,281,11.0,23.0,72,0.00,,,0.13,,2013-02-11 17:52:00,
2013-02-11 12:02:00,32.0,25.0,29.83,WSW,253,9.0,28.0,74,0.00,,,0.13,,2013-02-11 18:02:00,
2013-02-11 12:11:00,32.0,25.0,29.83,WSW,253,9.0,28.0,74,0.00,,,0.13,,2013-02-11 18:11:00,
2013-02-11 12:21:00,32.0,24.0,29.84,West,279,10.0,21.0,73,0.00,,,0.13,,2013-02-11 18:21:00,
2013-02-11 12:32:00,32.0,24.0,29.85,NNW,338,11.0,25.0,71,0.00,,,0.11,,2013-02-11 18:32:00,
2013-02-11 12:42:00,32.0,24.0,29.85,NNW,338,11.0,25.0,71,0.00,,,0.11,,2013-02-11 18:42:00,
2013-02-11 12:52:00,32.0,24.0,29.85,NNW,338,11.0,25.0,71,0.00,,,0.11,,2013-02-11 18:52:00,
2013-02-11 13:02:00,32.0,24.0,29.85,WNW,283,10.0,24.0,72,0.00,,,0.11,,2013-02-11 19:02:00,
2013-02-11 13:11:00,32.0,24.0,29.85,WNW,283,10.0,24.0,72,0.00,,,0.11,,2013-02-11 19:11:00,
2013-02-11 13:21:00,32.0,24.0,29.86,WSW,252,13.0,33.0,72,0.00,,,0.11,,2013-02-11 19:21:00,
2013-02-11 13:32:00,32.0,24.0,29.86,North,360,11.0,18.0,72,0.00,,,0.10,,2013-02-11 19:32:00,
2013-02-11 13:42:00,32.0,24.0,29.86,North,360,11.0,18.0,72,0.00,,,0.10,,2013-02-11 19:42:00,
2013-02-11 13:51:00,32.0,24.0,29.86,North,360,11.0,18.0,72,0.00,,,0.10,,2013-02-11 19:51:00,
2013-02-11 14:01:00,32.0,24.0,29.87,North,5,12.0,19.0,72,0.00,,,0.10,,2013-02-11 20:01:00,
2013-02-11 14:11:00,32.0,23.0,29.88,NNW,336,12.0,23.0,70,0.00,,,0.10,,2013-02-11 20:11:00,
2013-02-11 14:21:00,32.0,23.0,29.88,NNW,336,12.0,23.0,70,0.00,,,0.10,,2013-02-11 20:21:00,
2013-02-11 14:32:00,32.0,23.0,29.89,NW,322,11.0,29.0,70,0.00,,,0.01,,2013-02-11 20:32:00,
2013-02-11 14:42:00,31.0,23.0,29.89,West,274,12.0,21.0,71,0.00,,,0.01,,2013-02-11 20:42:00,
2013-02-11 14:52:00,31.0,23.0,29.89,West,274,12.0,21.0,71,0.00,,,0.01,,2013-02-11 20:52:00,
2013-02-11 15:02:00,31.0,23.0,29.91,North,5,10.0,21.0,72,0.00,,,0.01,,2013-02-11 21:02:00,
2013-02-11 15:11:00,31.0,23.0,29.91,NNW,334,11.0,22.0,72,0.00,,,0.01,,2013-02-11 21:11:00,
2013-02-11 15:22:00,31.0,23.0,29.91,NNW,334,11.0,22.0,72,0.00,,,0.01,,2013-02-11 21:22:00,
2013-02-11 15:32:00,31.0,23.0,29.91,West,266,10.0,22.0,72,0.00,,,0.00,,2013-02-11 21:32:00,
2013-02-11 15:42:00,31.0,23.0,29.91,West,266,10.0,22.0,72,0.00,,,0.00,,2013-02-11 21:42:00,
2013-02-11 15:52:00,31.0,23.0,29.92,WSW,257,9.0,19.0,72,0.00,,,0.00,,2013-02-11 21:52:00,
2013-02-11 16:02:00,31.0,23.0,29.93,WSW,254,6.0,20.0,73,0.00,,,0.00,,2013-02-11 22:02:00,
2013-02-11 16:11:00,31.0,23.0,29.93,WSW,254,6.0,20.0,73,0.00,,,0.00,,2013-02-11 22:11:00,
2013-02-11 16:22:00,31.0,23.0,29.93,WSW,241,9.0,19.0,72,0.00,,,0.00,,2013-02-11 22:22:00,
2013-02-11 16:32:00,31.0,23.0,29.94,West,267,9.0,23.0,73,0.00,,,0.00,,2013-02-11 22:32:00,
2013-02-11 16:42:00,31.0,23.0,29.94,West,267,9.0,23.0,73,0.00,,,0.00,,2013-02-11 22:42:00,
2013-02-11 16:52:00,31.0,23.0,29.95,WNW,300,10.0,22.0,72,0.00,,,0.00,,2013-02-11 22:52:00,
2013-02-11 17:02:00,31.0,23.0,29.95,West,271,8.0,19.0,73,0.00,,,0.00,,2013-02-11 23:02:00,
2013-02-11 17:11:00,31.0,23.0,29.95,West,271,8.0,19.0,73,0.00,,,0.00,,2013-02-11 23:11:00,
2013-02-11 17:21:00,31.0,23.0,29.96,WNW,297,9.0,21.0,73,0.00,,,0.00,,2013-02-11 23:21:00,
2013-02-11 17:32:00,31.0,23.0,29.96,NNW,332,9.0,17.0,73,0.00,,,0.00,,2013-02-11 23:32:00,
2013-02-11 17:42:00,31.0,23.0,29.96,NNW,332,9.0,17.0,73,0.00,,,0.00,,2013-02-11 23:42:00,
2013-02-11 17:52:00,31.0,24.0,29.97,West,262,8.0,17.0,74,0.00,,,0.00,,2013-02-11 23:52:00,
2013-02-11 18:02:00,31.0,24.0,29.98,WSW,257,7.0,20.0,75,0.00,,,0.00,,2013-02-12 00:02:00,
2013-02-11 18:11:00,31.0,24.0,29.98,WSW,257,7.0,20.0,75,0.00,,,0.00,,2013-02-12 00:11:00,
2013-02-11 18:22:00,31.0,24.0,29.98,WNW,292,10.0,19.0,75,0.00,,,0.00,,2013-02-12 00:22:00,
2013-02-11 18:32:00,30.0,23.0,29.99,SSW,209,7.0,24.0,74,0.00,,,0.00,,2013-02-12 00:32:00,
2013-02-11 18:42:00,30.0,23.0,29.99,SSW,209,7.0,24.0,74,0.00,,,0.00,,2013-02-12 00:42:00,
2013-02-11 18:52:00,30.0,23.0,30.00,WNW,285,8.0,17.0,75,0.00,,,0.00,,2013-02-12 00:52:00,
2013-02-11 19:02:00,30.0,23.0,30.01,WNW,290,7.0,15.0,75,0.00,,,0.00,,2013-02-12 01:02:00,
2013-02-11 19:11:00,30.0,23.0,30.01,WNW,290,7.0,15.0,75,0.00,,,0.00,,2013-02-12 01:11:00,
2013-02-11 19:21:00,30.0,23.0,30.01,NW,324,9.0,16.0,76,0.00,,,0.00,,2013-02-12 01:21:00,
2013-02-11 19:32:00,30.0,24.0,30.01,SW,223,8.0,15.0,77,0.00,,,0.00,,2013-02-12 01:32:00,
2013-02-11 19:42:00,30.0,24.0,30.01,SW,223,8.0,15.0,77,0.00,,,0.00,,2013-02-12 01:42:00,
2013-02-11 19:51:00,30.0,24.0,30.02,West,271,6.0,15.0,77,0.00,,,0.00,,2013-02-12 01:51:00,
2013-02-11 20:01:00,30.0,24.0,30.02,NW,319,5.0,15.0,77,0.00,,,0.00,,2013-02-12 02:01:00,
2013-02-11 20:12:00,30.0,24.0,30.02,NW,319,5.0,15.0,77,0.00,,,0.00,,2013-02-12 02:12:00,
2013-02-11 20:21:00,30.0,23.0,30.02,NNW,338,6.0,16.0,76,0.00,,,0.00,,2013-02-12 02:21:00,
2013-02-11 20:32:00,30.0,23.0,30.02,WNW,300,7.0,18.0,74,0.00,,,0.00,,2013-02-12 02:32:00,
2013-02-11 20:42:00,30.0,23.0,30.02,WNW,300,7.0,18.0,74,0.00,,,0.00,,2013-02-12 02:42:00,
2013-02-11 20:52:00,30.0,23.0,30.02,North,351,10.0,20.0,75,0.00,,,0.00,,2013-02-12 02:52:00,
2013-02-11 21:02:00,30.0,23.0,30.03,West,262,8.0,16.0,74,0.00,,,0.00,,2013-02-12 03:02:00,
2013-02-11 21:11:00,30.0,23.0,30.03,West,262,8.0,16.0,74,0.00,,,0.00,,2013-02-12 03:11:00,
2013-02-11 21:21:00,29.0,22.0,30.04,West,277,7.0,20.0,75,0.00,,,0.00,,2013-02-12 03:21:00,
2013-02-11 21:32:00,29.0,22.0,30.04,NW,314,7.0,21.0,76,0.00,,,0.00,,2013-02-12 03:32:00,
2013-02-11 21:42:00,29.0,22.0,30.04,NW,314,7.0,21.0,76,0.00,,,0.00,,2013-02-12 03:42:00,
2013-02-11 21:51:00,29.0,22.0,30.04,West,281,5.0,17.0,76,0.00,,,0.00,,2013-02-12 03:51:00,
2013-02-11 22:01:00,29.0,22.0,30.04,WSW,245,8.0,13.0,75,0.00,,,0.00,,2013-02-12 04:01:00,
2013-02-11 22:11:00,29.0,22.0,30.04,WSW,245,8.0,13.0,75,0.00,,,0.00,,2013-02-12 04:11:00,
2013-02-11 22:21:00,29.0,22.0,30.04,WSW,250,8.0,16.0,75,0.00,,,0.00,,2013-02-12 04:21:00,
2013-02-11 22:31:00,29.0,22.0,30.04,West,273,8.0,20.0,75,0.00,,,0.00,,2013-02-12 04:31:00,
2013-02-11 22:42:00,29.0,22.0,30.04,West,273,8.0,20.0,75,0.00,,,0.00,,2013-02-12 04:42:00,
2013-02-11 22:51:00,29.0,22.0,30.04,NNW,340,8.0,16.0,75,0.00,,,0.00,,2013-02-12 04:51:00,
2013-02-11 23:01:00,29.0,22.0,30.04,NW,317,6.0,12.0,76,0.00,,,0.00,,2013-02-12 05:01:00,
2013-02-11 23:11:00,29.0,22.0,30.04,NW,317,6.0,12.0,76,0.00,,,0.00,,2013-02-12 05:11:00,
2013-02-11 23:21:00,29.0,23.0,30.05,NW,324,5.0,11.0,77,0.00,,,0.00,,2013-02-12 05:21:00,
2013-02-11 23:31:00,28.0,22.0,30.06,NNW,341,6.0,12.0,77,0.00,,,0.00,,2013-02-12 05:31:00,
2013-02-11 23:42:00,28.0,22.0,30.06,NNW,341,6.0,12.0,77,0.00,,,0.00,,2013-02-12 05:42:00,
2013-02-11 23:52:00,28.0,22.0,30.07,NNW,340,7.0,11.0,78,0.00,,,0.00,,2013-02-12 05:52:00,